Regional Weather Roundup
Issued by NWS

Current Version | Previous Version | Text Only | Print | Product List | Glossary On
Versions: 1 2 3 4 5 6 7 8 9 10 11 12 13 14 15 16 17 18 19 20 21 22 23 24 25 26 27 28 29 30 31 32 33 34 35 36 37 38 39 40 41 42 43 44 45 46 47 48 49 50
000
ASUS44 KFWD 160515
RWRTX
NORTH TEXAS HOURLY WEATHER ROUNDUP
NATIONAL WEATHER SERVICE FORT WORTH TX
1200 AM CDT TUE OCT 16 2018

NOTE: "FAIR" INDICATES FEW OR NO CLOUDS BELOW 12,000 FEET WITH NO
SIGNIFICANT WEATHER AND/OR OBSTRUCTIONS TO VISIBILITY.

TXZ118-119-160600-
DALLAS/FORT WORTH METROPLEX

CITY           SKY/WX    TMP DP  RH WIND       PRES   REMARKS
DFW AIRPORT    LGT RAIN  45  43  93 N15       30.27F FOG     WCI  38
DALLAS LOVE    LGT RAIN  46  44  93 N12       30.28F FOG
FTW MEACHAM    LGT RAIN  45  43  93 N13       30.26F WCI  39
DAL-EXECUTIVE  LGT RAIN  44  43  96 N12       30.26F FOG     WCI  38
FTW-ALLIANCE   LGT RAIN  47  41  80 N15       30.29F
FTW-NAS-JRB    LGT RAIN  48  42  80 N15       30.28F
FTW-SPINKS     HVY RAIN  46  44  95 N9G17     30.27F
ARLINGTON      LGT RAIN  46  45  96 N18       30.26F WCI  39
GRAND PRAIRIE  CLOUDY    45  45 100 N14G20    30.29F WCI  38
ADDISON        LGT RAIN  44  42  94 N10       30.30F WCI  39
MESQUITE       CLOUDY    46  45  97 N12G21    30.28F WCI  40
LANCASTER      RAIN      45  43  93 N12G20    30.28F WCI  39
$$

TXZ091>094-102>105-117-120-121-131>134-160600-
NORTH CENTRAL TEXAS

CITY           SKY/WX    TMP DP  RH WIND       PRES   REMARKS
SHRMAN/DENISON CLOUDY    46  38  74 NE9       30.31F
GAINESVILLE    CLOUDY    46  38  73 N5        30.34R
BOWIE          CLOUDY    46  37  71 N7        30.33S
BRIDGEPORT     CLOUDY    47  37  68 N13       30.33F
DECATUR        MOCLDY    46  38  76 N7        30.30F
DENTON         LGT RAIN  46  40  79 N13       30.30F
MCKINNEY       LGT RAIN  45  44  97 N14       30.29F FOG     WCI  38
BONHAM         DRIZZLE   43  42  96 N8        30.31S FOG     WCI  38
GREENVILLE     CLOUDY    48  45  87 N10       30.29S
ROCKWALL       DRIZZLE   45  45 100 N8        30.29F
TERRELL        LGT RAIN  46  43  89 N12       30.26F
WAXAHACHIE     RAIN      44  44 100 N12G18    30.26F WCI  38
CLEBURNE       HVY RAIN  45  45 100 N18G24    30.25F WCI  37
GRANBURY       RAIN      47  43  86 N8        30.29F
$$

TXZ083>090-098>101-113>116-127>130-139>142-154-155-160600-
WESTERN NORTH TEXAS

CITY           SKY/WX    TMP DP  RH WIND       PRES   REMARKS
WICHITA FALLS  CLOUDY    45  33  63 N13       30.34F WCI  39
WF-KICKAPOO    CLOUDY    46  33  61 N10G22    30.37F
VERNON         CLOUDY    46  36  69 N9        30.36F
ABILENE        LGT RAIN  41  39  93 N12       30.31S FOG     WCI  34
ABILENE-DYESS  LGT RAIN  41  34  76 N13       30.36R WCI  34
GRAHAM         CLOUDY    44  37  75 N10G16    30.31R WCI  39
CISCO          LGT RAIN  41  39  93 N10       30.28S WCI  35
EASTLAND       LGT RAIN  41  39  91 N10       30.28F WCI  35
RANGER         RAIN      42  41  99 N15       30.28F WCI  34
MINERAL WELLS  LGT RAIN  45  39  79 N13       30.28F WCI  39
STEPHENVILLE   CLOUDY    43  41  91 CALM      30.27F
COMANCHE       DRIZZLE   42  42 100 MISG      30.28R
BROWNWOOD      CLOUDY    43  41  93 N13       30.27F WCI  36
COLEMAN        LGT RAIN  42  39  89 N14       30.27F WCI  35
BRADY          LGT RAIN  41  39  93 N14G22    30.25F WCI  33
$$

TXZ143>147-156>162-174-175-160600-
CENTRAL TEXAS

CITY           SKY/WX    TMP DP  RH WIND       PRES   REMARKS
WACO           RAIN      46  44  93 N17G25    30.21F WCI  39
WACO-MCGREGOR  LGT RAIN  45  45 100 N15       30.22F WCI  38
HILLSBORO      RAIN      46  46 100 N15G25    30.22F WCI  39
CORSICANA        N/A    N/A N/A N/A MISG      30.23F
MEXIA          RAIN      44  44  98 N10G20    30.21F WCI  39
HEARNE         LGT RAIN  46  45  96 N15       30.19S WCI  39
CAMERON        CLOUDY    46  45  95 N14G21    30.19F WCI  40
TEMPLE         LGT RAIN N/A N/A N/A N16G22    30.19F
KILLEEN        RAIN      43  43 100 N14       30.18S FOG     WCI  36
KILLEEN-SKYLRK LGT RAIN  45  43  93 N14       30.20F WCI  38
FORT HOOD      LGT RAIN  45  43  93 N14       30.16S FOG     WCI  38
GATESVILLE     LGT RAIN  45  43  93 N7G16     30.24F
HAMILTON       RAIN      44  44 100 N14       30.25R WCI  37
LAMPASAS       LGT SNOW  43  42  97 N9G16     30.20F WCI  38
$$

TXZ095>097-106>112-122>126-135>138-148>153-164>167-160600-
EAST TEXAS

CITY           SKY/WX    TMP DP  RH WIND       PRES   REMARKS
PARIS          CLOUDY    45  43  93 N9        30.29R WCI  40
SULPHUR SPRNGS CLOUDY    47  45  94 N10       30.29F
MOUNT PLEASANT CLOUDY    48  46  93 N7        30.25F
GILMER         CLOUDY    49  49  99 N7        30.23S
MINEOLA        CLOUDY    46  45  93 N7        30.26R FOG
TYLER          LGT RAIN  49  49 100 N9        30.22R FOG
LONGVIEW       LGT RAIN  52  52 100 N9        30.21R
MARSHALL       CLOUDY    50  48  93 NE6       30.21S
ATHENS         LGT RAIN  45  45 100 N12G18    30.20F WCI  39
PALESTINE      FLURRIES  48  48 100 N10       30.23R
JACKSONVILLE   RAIN      49  49 100 N9        30.21R
HENDERSON      CLOUDY    52  51  97 N12       30.21R
NACOGDOCHES    HVY RAIN  55  54  96 VRB6      30.16R
LUFKIN         HVY RAIN  55  55 100 N9        30.12F FOG
$$

SUPPLEMENTAL OBSERVATIONS (NWS FORT WORTH AREA)

CITY           SKY/WX    TMP DP  RH WIND       PRES   REMARKS
DENISON DAM      N/A     46  39  76 N9          N/A
POSSUM KINGDOM   N/A     45  39  81 N9G17       N/A  WCI  40
GRANBURY         N/A     46  43  87 N9G17       N/A
COMANCHE         N/A     43  39  87 N12         N/A  WCI  37
MCGREGOR         N/A     45  41  87 N17G24      N/A  WCI  37
TEMPLE           N/A     46  43  87 N16G23      N/A  WCI  40
LAKE LIMESTONE   N/A     46  45  93 VRB13G22    N/A
ATHENS           N/A     46  45  93 N3          N/A
PALESTINE        N/A     48  46  93 N9          N/A
$$

SUPPLEMENTAL OBSERVATIONS (NWS NORMAN AREA)

CITY           SKY/WX    TMP DP  RH WIND       PRES   REMARKS
GOODLETT         N/A     45  33  62 N8        30.38S
ODELL            N/A     44  35  69 N9        30.38F WCI  39
CROWELL          N/A     45  33  63 N9        30.39R
KNOX CITY        N/A     45  38  77 N8        30.36F
SEYMOUR          N/A     45  34  65 N15       30.35F WCI  38
MILLERS CREEK    N/A     45  34  65 N12         N/A  WCI  39
$$

SUPPLEMENTAL OBSERVATIONS (NWS SAN ANGELO AREA)

CITY           SKY/WX    TMP DP  RH WIND       PRES   REMARKS
WEINERT          N/A     44  35  69 N10       30.36R WCI  39
HASKELL          N/A     43  36  75 N12       30.35R WCI  37
THROCKMORTON     N/A     44  35  71 N7        30.34S WCI  40
STAMFORD         N/A     44  36  73 N13       30.34S WCI  37
CLYDE            N/A     40  39  95 N6        30.32S WCI  36
HAMBY            N/A     41  37  87 N8          N/A  WCI  36
IVIE RESERVOIR   N/A     43  39  87 N10         N/A  WCI  37
COLORADO BEND    N/A     43  41  93 N9G17       N/A  WCI  37
$$

SUPPLEMENTAL OBSERVATIONS (NWS SHREVEPORT AREA)

CITY           SKY/WX    TMP DP  RH WIND       PRES   REMARKS
TEXARKANA        N/A     50  46  87 NE7         N/A
LINDEN           N/A     50  46  87 N1G9        N/A
CADDO LAKE       N/A     52  48  87 NE3         N/A
LUFKIN           N/A     55  54  94 MISG        N/A
$$

SUPPLEMENTAL OBSERVATIONS ARE A COLLECTION OF AUTOMATED INSTRUMENTS
THAT ARE MAINTAINED BY A VARIETY OF FEDERAL AND STATE AGENCIES.
CERTAIN ELEMENTS...SUCH AS HUMIDITY VALUES AND SUSTAINED WIND
SPEEDS...MAY BE APPROXIMATED.




USA.gov is the U.S. government's official web portal to all federal, state and local government web resources and services.